Change the Weather History Date:

Tuesday, January 1, 2013

  Actual Average Record
Temperature  
Mean Temperature 64 °F -  
Max Temperature 71 °F 74 °F - ()
Min Temperature 57 °F 58 °F - ()
Degree Days  
Heating Degree Days 1    
Growing Degree Days 14 (Base 50)    
Moisture  
Dew Point 55 °F    
Average Humidity 74    
Maximum Humidity 88    
Minimum Humidity 51    
Precipitation  
Precipitation 0.01 in - - ()
Sea Level Pressure  
Sea Level Pressure 30.06 in    
Wind  
Wind Speed 6 mph ()    
Max Wind Speed 13 mph    
Max Gust Speed -    
Visibility 7.5 miles    
Events      
T = Trace of Precipitation, MM = Missing Value Source: Averaged Metar Reports

Daily Weather History Graph

Daily Weather History Graph

Search for Another Location

Airport or City:

Trip Planner

Search our weather history database for the weather conditions in past years. The results will help you decide how hot, cold, wet, or windy it might be!

Date:

Astronomy

Jan. 01, 2013 Rise Set
Actual Time 5:22 AM SAST 7:45 PM SAST
Civil Twilight 4:53 AM SAST 8:14 PM SAST
Nautical Twilight 4:18 AM SAST 8:49 PM SAST
Astronomical Twilight 3:39 AM SAST 9:28 PM SAST
Moon 10:07 PM SAST (1/1) 9:02 AM SAST (1/1)
Length of Visible Light 15h 20m
Length of Day
14h 22m
Waning Gibbous, 85% of the Moon is Illuminated
Jan 1
Waning Gibbous
Jan 5
Last Quarter
Jan 11
New
Jan 19
First Quarter
Jan 27
Full

Hourly Weather History & Observations

Time (SAST) Temp. Dew Point Humidity Pressure Visibility Wind Dir Wind Speed Gust Speed Precip Events Conditions
12:00 AM 59.0 °F 53.6 °F 82% 30.09 in 6.2 mi WNW 6.9 mph - N/A   Overcast
1:00 AM 59.0 °F 55.4 °F 88% 30.06 in 6.2 mi NW 5.8 mph - N/A   Overcast
2:00 AM 60 °F 54 °F 76% 30.08 in 12 mi NW 4.6 mph - -  
2:00 AM 59.0 °F 53.6 °F 82% 30.06 in 6.2 mi NW 4.6 mph - N/A   Overcast
3:00 AM 59.0 °F 53.6 °F 82% 30.06 in 6.2 mi WNW 4.6 mph - N/A   Overcast
4:00 AM 59.0 °F 53.6 °F 82% 30.06 in 6.2 mi WNW 4.6 mph - N/A   Overcast
5:00 AM 59 °F 54 °F 79% 30.06 in 12 mi WNW 4.6 mph - -   Overcast
5:00 AM 59.0 °F 53.6 °F 82% 30.06 in 6.2 mi WNW 4.6 mph - N/A   Mostly Cloudy
6:00 AM 59.0 °F 53.6 °F 82% 30.06 in 6.2 mi NW 3.5 mph - N/A   Mostly Cloudy
7:00 AM 60.8 °F 53.6 °F 77% 30.06 in 6.2 mi WNW 6.9 mph - N/A   Scattered Clouds
8:00 AM 61 °F 53 °F 69% 30.09 in 12 mi WNW 6.9 mph - -   Mostly Cloudy
8:00 AM 60.8 °F 53.6 °F 77% 30.09 in 6.2 mi West 5.8 mph - N/A   Mostly Cloudy
9:00 AM 62.6 °F 53.6 °F 72% 30.09 in 6.2 mi NW 5.8 mph - N/A   Mostly Cloudy
10:00 AM 64.4 °F 51.8 °F 64% 30.09 in 6.2 mi WSW 4.6 mph - N/A   Mostly Cloudy
11:00 AM 65 °F 52 °F 53% 30.08 in 12 mi SSE 6.9 mph - -   Mostly Cloudy
11:00 AM 64.4 °F 51.8 °F 64% 30.09 in 6.2 mi South 5.8 mph - N/A   Mostly Cloudy
12:00 PM 66.2 °F 53.6 °F 64% 30.09 in 6.2 mi SW 6.9 mph - N/A   Mostly Cloudy
1:00 PM 66.2 °F 55.4 °F 68% 30.06 in 6.2 mi SSE 9.2 mph - N/A   Mostly Cloudy
2:00 PM 68 °F 54 °F 51% 30.08 in 12 mi SSE 11.5 mph - -   Mostly Cloudy
2:00 PM 68.0 °F 55.4 °F 64% 30.06 in 6.2 mi SSE 10.4 mph - N/A   Mostly Cloudy
3:00 PM 69.8 °F 55.4 °F 60% 30.04 in 6.2 mi SSE 12.7 mph - N/A   Scattered Clouds
4:00 PM 64.4 °F 55.4 °F 73% 30.04 in 6.2 mi ESE 12.7 mph - N/A   Scattered Clouds
5:00 PM 64 °F 57 °F 70% 30.04 in 12 mi East 8.1 mph - -   Mostly Cloudy
5:00 PM 64.4 °F 57.2 °F 77% 30.04 in 6.2 mi East 8.1 mph - N/A   Mostly Cloudy
6:00 PM 62.6 °F 59.0 °F 88% 30.04 in 6.2 mi ESE 9.2 mph - N/A   Mostly Cloudy
7:00 PM 62.6 °F 55.4 °F 77% 30.04 in 6.2 mi ESE 11.5 mph - N/A   Mostly Cloudy
8:00 PM 62 °F 56 °F 74% 30.06 in 12 mi East 11.5 mph - -   Mostly Cloudy
8:00 PM 62.6 °F 55.4 °F 77% 30.04 in 6.2 mi East 12.7 mph - N/A   Mostly Cloudy
9:00 PM 60.8 °F 57.2 °F 88% 30.06 in 6.2 mi East 10.4 mph - N/A   Mostly Cloudy
10:00 PM 60.8 °F 55.4 °F 82% 30.04 in 6.2 mi East 11.5 mph - N/A   Mostly Cloudy
11:00 PM 60.8 °F 55.4 °F 82% 30.04 in 6.2 mi East 12.7 mph - N/A   Mostly Cloudy